Location: *
(51.1248°S, 108.4023°W)
Time: 19:05:39
(UTC+00:00)

Daily predictions for brighter satellites

Satellite Brightness Start Highest point End
(mag) Time Altitude Azimuth Time Altitude Azimuth Time Altitude Azimuth
COSMOS 2455 3.1 12:09:14 50° S 12:10:39 65° SE 12:16:40 10° NE
Cosmos 1709 Rocket 3.9 12:12:02 67° NW 12:12:02 67° NW 12:17:40 10° N
SMAP 3.5 12:07:34 10° NNE 12:12:13 62° ESE 12:12:50 56° SSE
Cosmos 724 4.1 12:15:56 78° WNW 12:16:18 85° SW 12:22:08 10° SE
USA 234 3.2 12:12:32 10° NE 12:19:06 68° NW 12:20:19 57° W
MOS 1-B 4.5 12:17:23 10° NNE 12:23:13 74° ESE 12:27:35 19° SSW
Meteor 2-6 Rocket 4.0 12:19:21 10° NNW 12:24:55 84° WSW 12:30:27 10° SSE
Cosmos 1939 Rocket 3.6 12:21:34 10° NNE 12:25:39 53° ESE 12:26:53 39° SSE
Cosmos 2315 Rocket 3.9 12:20:33 10° NNW 12:26:51 79° W 12:33:20 10° S
Cosmos 494 Rocket 4.0 12:25:43 52° SSW 12:27:02 82° ESE 12:32:21 10° NNE
PAYLOAD B 4.3 12:23:28 10° NNE 12:29:06 80° ESE 12:32:54 22° SSW
Cosmos 2369 Rocket 2.2 12:33:37 56° SW 12:33:37 56° SW 12:39:07 10° SSE
MOS 1 Rocket 3.7 12:28:39 10° SSE 12:33:49 68° E 12:38:36 10° N
Cosmos 1937 Rocket 4.4 12:36:10 32° SSW 12:36:10 32° SSW 12:39:28 10° SSE
Cosmos 2263 4.1 12:35:14 54° WNW 12:36:25 69° WSW 12:42:09 10° SSE
Lacrosse 4 Rocket 4.4 12:33:59 10° NNE 12:36:45 17° ENE 12:39:32 10° ESE
Cosmos 1607 4.2 12:37:09 44° SW 12:37:23 44° SW 12:43:15 10° SE
Cosmos 2074 Rocket 4.1 12:31:04 10° S 12:37:25 78° ESE 12:43:45 10° NNE
Cosmos 2084 4.1 12:39:15 43° S 12:40:00 48° SE 12:44:08 10° ENE
ATLAS CENTAUR R/B 3.5 12:42:53 17° S 12:42:53 17° S 12:44:55 10° SSE
Cosmos 2150 Rocket 4.4 12:37:42 10° NNW 12:43:07 69° ENE 12:48:39 10° SSE
Cosmos 2228 Rocket 3.1 12:43:16 10° N 12:47:43 82° E 12:52:15 10° SSE
Lacrosse 5 2.4 12:47:17 40° SSW 12:48:07 44° S 12:53:05 10° ESE
CZ-4 R/B 3.6 12:44:57 10° ENE 12:48:30 26° ESE 12:52:03 10° S
Cosmos 1656 Rocket 3.6 12:48:44 41° WNW 12:50:30 61° SW 12:55:59 10° SSE
Cosmos 1536 2.7 12:50:30 64° SW 12:51:03 76° W 12:55:09 10° N
Cosmos 2278 Rocket 4.2 12:55:54 13° SSW 12:55:54 13° SSW 12:58:07 10° S
COSMO-SKYMED 1 4.1 12:53:27 10° SSE 12:57:36 38° E 13:01:42 10° NNE
NOAA 11 4.4 12:53:53 10° N 12:59:10 47° W 13:01:16 32° SW
Landsat 5 3.9 12:54:55 10° SSE 12:59:21 66° ENE 13:03:32 10° N
H-2A R/B 2.3 13:00:06 10° NNE 13:03:59 80° ESE 13:06:27 22° S
Cosmos 1125 Rocket 3.6 12:59:20 10° NNW 13:04:41 82° ENE 13:10:06 10° SSE
USA 281 3.3 13:00:46 10° SSE 13:07:13 56° SW 13:13:37 10° NW
Cosmos 1340 Rocket 3.3 13:10:40 39° WNW 13:10:40 39° WNW 13:14:16 10° NNW
ARGOS 4.2 13:05:49 10° NE 13:10:59 46° ESE 13:16:10 10° S
Cosmos 2154 Rocket 4.0 13:05:50 10° S 13:12:19 89° W 13:18:44 10° N
Cosmos 2184 Rocket 4.0 13:06:47 10° SSW 13:13:11 65° W 13:19:28 10° N
H-2A R/B 2.3 13:11:52 10° NNE 13:16:55 69° ESE 13:21:56 10° S
Cosmos 1544 3.4 13:19:35 40° W 13:19:39 40° W 13:23:04 10° NNW
Cosmos 1269 Rocket 4.0 13:18:59 15° SSW 13:23:27 87° WNW 13:28:48 10° NNE
CZ-2C R/B 4.4 13:18:51 10° SSE 13:23:36 33° E 13:28:19 10° NNE
Cosmos 2219 3.7 13:18:58 13° SSW 13:24:01 60° SE 13:29:37 10° NE
CZ-2C R/B 3.1 13:19:32 10° N 13:24:11 49° W 13:27:56 16° SSW
Meteor 1-11 Rocket 4.3 13:20:39 17° SSW 13:24:35 38° W 13:30:01 10° NNW
Okean O Rocket 1.7 13:21:06 10° N 13:25:32 58° W 13:29:21 14° SSW
CZ-4B R/B 3.2 13:20:29 10° N 13:25:42 54° W 13:30:57 10° SSW
USA 267 3.3 13:19:26 10° ESE 13:26:03 73° SSW 13:31:34 16° WNW
COSMOS 2487 3.0 13:27:01 34° W 13:27:12 35° WNW 13:30:21 10° N
Cosmos 1975 3.6 13:23:21 10° S 13:27:24 53° ESE 13:31:22 10° NNE
Cosmos 2263 Rocket 4.2 13:24:18 10° SSW 13:28:24 20° SE 13:32:28 10° E
Cosmos 2297 Rocket 2.4 13:25:15 13° SSW 13:30:22 74° ESE 13:36:03 10° NE
H-2A R/B 2.7 13:26:35 10° SSE 13:31:09 65° ENE 13:35:41 10° N
Cosmos 1862 Rocket 4.2 13:28:08 10° N 13:32:32 60° E 13:36:56 10° SSE
Cosmos 2227 Rocket 2.6 13:28:18 11° SSW 13:33:43 63° SE 13:39:23 10° NE
CZ-4 R/B 4.4 13:31:08 10° N 13:35:19 79° WNW 13:39:34 10° SSW
CZ-2D R/B 3.5 13:32:40 10° N 13:36:29 49° W 13:39:33 15° SSW
Cosmos 1869 Rocket 4.4 13:35:48 24° WSW 13:37:08 28° W 13:40:52 10° NNW
Feng Yun 1-1 Rocket 4.3 13:31:38 10° NNE 13:37:25 84° WNW 13:43:06 10° SSW
Cosmos 1743 3.2 13:37:06 20° SW 13:39:17 39° W 13:42:53 10° NNW
IRAS Rocket 4.4 13:34:57 10° S 13:40:27 54° WSW 13:45:57 10° NW
Okean 1 3.3 13:38:13 10° N 13:42:19 85° W 13:46:30 10° S
Cosmos 1943 Rocket 3.7 13:44:20 16° SW 13:45:36 17° SSW 13:49:20 10° S
SKYMED 2 3.5 13:41:23 10° SSE 13:45:50 78° WSW 13:50:13 10° NNW
SJ-11-01 4.3 13:41:37 10° NNE 13:46:26 88° WNW 13:51:18 10° SSW
APEX 2.8 13:45:24 16° SSW 13:48:17 85° ESE 13:51:23 10° NNE
Cosmos 1707 Rocket 3.6 13:45:23 10° NNW 13:49:41 55° WSW 13:54:03 10° S
SMAP 4.4 13:46:32 10° NW 13:49:58 20° W 13:51:18 18° WSW
Cosmos 2251 Rocket 4.3 13:44:41 10° SSW 13:50:01 52° ESE 13:55:16 10° NE
Iridium 4 Rocket 3.5 13:45:20 10° N 13:50:20 87° W 13:55:55 10° S
Cosmos 1733 Rocket 3.2 13:47:29 10° SSW 13:51:52 54° W 13:56:09 10° N
Nadezhda 1 Rocket 4.1 13:49:20 10° NNW 13:55:41 61° WSW 14:02:09 10° S
SME Rocket 4.0 13:49:43 10° SSE 13:55:49 67° ENE 14:00:05 10° N
COSMOS 2455 3.7 13:52:23 16° WSW 13:56:14 31° WNW 14:01:24 10° N
CZ-4C R/B 3.7 13:55:49 10° S 13:58:36 26° WSW 14:01:21 10° NW
Cosmos 1939 Rocket 4.4 13:57:50 10° NW 14:00:52 19° W 14:02:45 15° WSW
SL-08 RB Rocket 3.9 13:57:25 10° NNE 14:02:08 82° ESE 14:06:52 10° SSW
Meteor 1-19 Rocket 4.2 13:56:28 10° NNW 14:02:18 80° WSW 14:08:01 10° S
Aureole 2 Rocket 4.2 14:01:35 10° SSE 14:03:10 16° SE 14:04:45 10° E
Meteor 1-27 Rocket 4.4 14:03:24 10° NW 14:08:21 31° WSW 14:13:25 10° S
CZ-4B R/B 1.5 14:04:53 10° SSE 14:08:24 85° ENE 14:11:48 10° NNW
Meteor 1-18 Rocket 4.3 14:05:38 10° NNW 14:11:36 77° WSW 14:17:33 10° S
Cosmos 2082 4.1 14:07:25 10° SSW 14:13:06 66° ESE 14:18:44 10° NE
Lacrosse 4 Rocket 1.4 14:10:42 10° NW 14:14:53 70° SW 14:19:14 10° SSE
Cosmos 2181 Rocket 4.2 14:09:21 10° N 14:15:49 82° E 14:22:14 10° SSE
Cosmos 1697 Rocket 4.2 14:11:29 10° N 14:16:48 42° ENE 14:22:08 10° SE
IRS-1C Rocket 4.2 14:12:48 10° N 14:18:03 60° WNW 14:23:23 10° SSW
Cosmos 2369 Rocket 3.7 14:15:27 11° WSW 14:18:50 17° SSW 14:22:34 10° S
Cosmos 2084 4.4 14:15:48 12° WSW 14:19:23 33° WNW 14:23:10 10° N
Cosmos 2218 Rocket 4.0 14:13:59 10° SSW 14:20:14 82° W 14:26:27 10° N
ATLAS CENTAUR R/B 3.6 14:19:43 10° SSW 14:22:13 14° S 14:24:38 10° SE
Helios 1A Rocket 3.6 14:18:16 10° NNE 14:22:19 56° ESE 14:26:28 10° S
CZ-4 R/B 2.0 14:19:16 10° N 14:23:18 42° W 14:27:23 10° SSW
DEBRIS 2.3 14:21:34 10° W 14:23:36 48° N 14:26:07 10° ENE
Cosmos 1656 3.8 14:19:09 10° NNW 14:24:44 83° ENE 14:30:19 10° SSE
YAOGAN 1 3.0 14:22:25 10° N 14:26:37 44° W 14:30:53 10° SSW
MetOp-A 4.4 14:23:01 10° NNE 14:28:25 77° ESE 14:33:53 10° SSW
OBJECT-B 1.9 14:27:13 10° NE 14:30:22 46° ESE 14:33:34 10° S
Lacrosse 5 2.2 14:26:40 10° WSW 14:31:49 58° SSE 14:36:54 10° E
Okean 1-7 3.1 14:28:08 10° N 14:32:28 84° E 14:36:50 10° SSE
COSMO-SKYMED 1 3.4 14:29:48 10° S 14:33:40 30° WSW 14:37:29 10° NW
Okean-O 3.0 14:33:21 10° N 14:37:40 46° W 14:42:03 10° SSW
Cosmos 1821 Rocket 4.5 14:34:04 10° S 14:40:24 69° ESE 14:46:47 10° NNE
USA 238 DEB 4.1 23:42:08 10° SW 23:49:07 72° NW 23:55:41 10° NNE
USA 238 4.1 23:42:15 10° SW 23:49:14 72° NW 23:55:47 10° NNE
Cosmos 332 Rocket 4.2 23:44:31 10° SSW 23:49:20 45° ESE 23:54:04 10° NE
Cosmos 1707 Rocket 3.6 23:48:23 10° S 23:52:52 65° ESE 23:57:18 10° NNE
USA 307 3.0 23:48:31 10° WNW 23:52:54 86° NNE 23:57:17 10° ESE
